Jennings, LA

10:58 AM CST on February 23, 2017 (GMT -0600)
Jennings

Weather History for K3R7 - January, 2014

Change the Weather History Date:

Monday, January 13, 2014

  Actual Average (KCWF) Record (KCWF)
Temperature  
Mean Temperature 60 °F -  
Max Temperature 73 °F 60 °F 80 °F (2000)
Min Temperature 47 °F 45 °F 24 °F (2011)
Degree Days  
Heating Degree Days 5    
Growing Degree Days 10 (Base 50)    
Moisture  
Dew Point 53 °F    
Average Humidity 78    
Maximum Humidity 100    
Minimum Humidity 52    
Precipitation  
Precipitation 0.38 in - - ()
Sea Level Pressure  
Sea Level Pressure 29.94 in    
Wind  
Wind Speed 10 mph (WSW)    
Max Wind Speed 18 mph    
Max Gust Speed 28 mph    
Visibility 10 miles    
Events Rain , Thunderstorm    
Averages and records for this station are not official NWS values.
T = Trace of Precipitation, MM = Missing Value Source: NWS Daily Summary

Daily Weather History Graph

Daily Weather History Graph

Search for Another Location

Airport or City:

Trip Planner

Search our weather history database for the weather conditions in past years. The results will help you decide how hot, cold, wet, or windy it might be!

Date:

Astronomy

Jan. 13, 2014 Rise Set
Actual Time 7:08 AM CST 5:31 PM CST
Civil Twilight 6:42 AM CST 5:57 PM CST
Nautical Twilight 6:12 AM CST 6:26 PM CST
Astronomical Twilight 5:43 AM CST 6:55 PM CST
Moon 3:45 PM CST (1/13) 4:58 AM CST (1/13)
Length of Visible Light 11h 14m
Length of Day
10h 23m
Waxing Gibbous, 95% of the Moon is Illuminated
Jan 13
Waxing Gibbous
Jan 15
Full
Jan 23
Last Quarter
Jan 30
New
Feb 6
First Quarter

Hourly Weather History & Observations

Time (CST) Temp. Dew Point Humidity Pressure Visibility Wind Dir Wind Speed Gust Speed Precip Events Conditions
12:15 AM 56.7 °F 50.4 °F 79% 30.01 in 10.0 mi SE 8.1 mph - N/A   Scattered Clouds
12:35 AM 56.3 °F 50.4 °F 80% 29.98 in 10.0 mi SE 9.2 mph - N/A   Clear
12:55 AM 56.3 °F 50.7 °F 82% 29.97 in 10.0 mi SE 9.2 mph - N/A   Clear
1:15 AM 56.8 °F 51.8 °F 83% 30.01 in 10.0 mi South 6.9 mph - N/A   Scattered Clouds
1:35 AM 57.2 °F 53.1 °F 86% 30.01 in 10.0 mi SSE 9.2 mph - N/A   Mostly Cloudy
1:55 AM 58.1 °F 54.7 °F 88% 29.99 in 10.0 mi SSE 10.4 mph 17.3 mph 0.01 in Rain Rain
2:15 AM 59.0 °F 57.2 °F 94% 29.97 in 10.0 mi SE 18.4 mph 27.6 mph 0.01 in Rain Light Rain
2:35 AM 59.9 °F 58.1 °F 94% 29.94 in 10.0 mi SSE 15.0 mph 23.0 mph 0.01 in   Overcast
2:55 AM 59.5 °F 57.6 °F 93% 29.95 in 10.0 mi SSE 12.7 mph 19.6 mph 0.01 in Rain Light Rain
3:15 AM 60.3 °F 57.9 °F 92% 29.95 in 10.0 mi South 13.8 mph 20.7 mph N/A   Light Drizzle
3:35 AM 60.3 °F 57.4 °F 90% 29.94 in 10.0 mi SSE 13.8 mph 18.4 mph 0.01 in Rain Light Rain
3:55 AM 59.9 °F 57.9 °F 93% 29.88 in 10.0 mi SE 10.4 mph 24.2 mph 0.02 in Rain Light Rain
4:15 AM 59.0 °F 57.0 °F 93% 29.87 in 10.0 mi SSE 15.0 mph 23.0 mph N/A   Mostly Cloudy
4:35 AM 58.5 °F 55.6 °F 90% 29.87 in 10.0 mi SSE 10.4 mph 19.6 mph N/A   Overcast
4:55 AM 59.2 °F 55.6 °F 88% 29.87 in 10.0 mi SSE 10.4 mph 20.7 mph N/A   Overcast
5:15 AM 59.0 °F 56.1 °F 90% 29.85 in 10.0 mi SE 9.2 mph - N/A   Mostly Cloudy
5:35 AM 59.2 °F 57.2 °F 93% 29.88 in 10.0 mi SSW 4.6 mph - N/A   Mostly Cloudy
5:55 AM 59.0 °F 57.9 °F 96% 29.92 in 7.0 mi WSW 6.9 mph 16.1 mph 0.04 in Rain Light Rain
6:15 AM 59.2 °F 58.3 °F 97% 29.93 in 7.0 mi Calm Calm - 0.04 in Rain , Thunderstorm Thunderstorms and Rain
6:35 AM 59.5 °F 59.2 °F 99% 29.92 in 7.0 mi South 6.9 mph - 0.10 in Rain Rain
6:55 AM 59.5 °F 59.4 °F 99% 29.92 in 10.0 mi South 10.4 mph - 0.14 in Rain Light Rain
7:15 AM 60.4 °F 60.3 °F 99% 29.90 in 10.0 mi SSE 8.1 mph - 0.03 in Rain , Thunderstorm Light Thunderstorms and Rain
7:35 AM 61.2 °F 60.8 °F 99% 29.92 in 10.0 mi South 9.2 mph - 0.03 in Rain Light Rain
7:55 AM 61.7 °F 61.2 °F 98% 29.92 in 7.0 mi South 6.9 mph - 0.07 in Rain Heavy Rain
8:15 AM 61.2 °F 61.0 °F 99% 29.93 in 10.0 mi South 6.9 mph - 0.01 in Rain Rain
8:35 AM 61.3 °F 61.0 °F 99% 29.93 in 7.0 mi South 8.1 mph - 0.06 in Rain Light Rain
8:55 AM 61.0 °F 60.8 °F 99% 29.92 in 7.0 mi SSE 9.2 mph - 0.09 in Rain Light Rain
9:15 AM 61.7 °F 61.7 °F 100% 29.92 in 10.0 mi South 6.9 mph - N/A Rain Light Rain
9:35 AM 62.6 °F 61.9 °F 97% 29.92 in 10.0 mi South 9.2 mph - N/A   Overcast
9:55 AM 62.6 °F 61.7 °F 97% 29.92 in 10.0 mi South 10.4 mph - N/A   Overcast
10:15 AM 62.6 °F 61.9 °F 97% 29.92 in 10.0 mi South 9.2 mph - N/A   Overcast
10:35 AM 62.8 °F 62.1 °F 97% 29.92 in 10.0 mi South 11.5 mph 17.3 mph N/A   Overcast
10:55 AM 62.8 °F 61.7 °F 96% 29.92 in 10.0 mi SSW 6.9 mph - N/A   Overcast
11:15 AM 63.7 °F 62.4 °F 96% 29.90 in 10.0 mi SSW 8.1 mph - N/A   Overcast
11:35 AM 64.4 °F 62.6 °F 94% 29.89 in 7.0 mi SSW 9.2 mph - N/A   Overcast
11:55 AM 65.3 °F 63.7 °F 94% 29.88 in 10.0 mi WSW 8.1 mph - N/A   Overcast
12:15 PM 67.1 °F 64.6 °F 92% 29.87 in 7.0 mi WSW 9.2 mph - N/A   Overcast
12:35 PM 69.1 °F 64.8 °F 86% 29.86 in 10.0 mi West 13.8 mph 20.7 mph N/A   Mostly Cloudy
12:55 PM 69.8 °F 64.0 °F 82% 29.85 in 10.0 mi West 13.8 mph 27.6 mph N/A   Mostly Cloudy
1:15 PM 70.5 °F 63.3 °F 78% 29.84 in 10.0 mi West 13.8 mph 23.0 mph N/A   Scattered Clouds
1:35 PM 71.1 °F 63.9 °F 78% 29.84 in 10.0 mi West 12.7 mph 20.7 mph N/A   Mostly Cloudy
1:55 PM 71.8 °F 63.3 °F 75% 29.84 in 10.0 mi WNW 15.0 mph 20.7 mph N/A   Mostly Cloudy
2:15 PM 72.0 °F 60.8 °F 68% 29.84 in 10.0 mi WNW 13.8 mph - N/A   Scattered Clouds
2:35 PM 73.2 °F 60.8 °F 65% 29.83 in 10.0 mi WNW 11.5 mph - N/A   Scattered Clouds
2:55 PM 72.5 °F 58.6 °F 62% 29.84 in 10.0 mi WNW 11.5 mph - N/A   Scattered Clouds
3:15 PM 73.0 °F 57.7 °F 59% 29.84 in 10.0 mi WNW 16.1 mph 19.6 mph N/A   Scattered Clouds
3:35 PM 70.7 °F 57.9 °F 64% 29.85 in 10.0 mi NW 16.1 mph - N/A   Scattered Clouds
3:55 PM 71.1 °F 57.4 °F 62% 29.87 in 10.0 mi WNW 17.3 mph 20.7 mph N/A   Clear
4:15 PM 70.5 °F 56.1 °F 60% 29.87 in 10.0 mi WNW 16.1 mph 21.9 mph N/A   Scattered Clouds
4:35 PM 69.3 °F 53.8 °F 58% 29.88 in 10.0 mi WNW 15.0 mph 21.9 mph N/A   Clear
4:55 PM 68.0 °F 53.6 °F 60% 29.89 in 10.0 mi NW 16.1 mph 24.2 mph N/A   Clear
5:15 PM 66.7 °F 51.8 °F 59% 29.90 in 10.0 mi WNW 16.1 mph 19.6 mph N/A   Clear
5:35 PM 64.9 °F 48.2 °F 55% 29.91 in 10.0 mi NW 13.8 mph 18.4 mph N/A   Clear
5:55 PM 63.5 °F 45.3 °F 52% 29.92 in 10.0 mi WNW 12.7 mph - N/A   Clear
6:15 PM 61.9 °F 45.1 °F 54% 29.94 in 10.0 mi NW 11.5 mph - N/A   Clear
6:35 PM 59.9 °F 45.5 °F 59% 29.95 in 10.0 mi WNW 10.4 mph - N/A   Clear
6:55 PM 58.1 °F 46.4 °F 65% 29.97 in 10.0 mi WNW 11.5 mph - N/A   Clear
7:15 PM 59.0 °F 43.0 °F 55% 29.98 in 10.0 mi WNW 10.4 mph - N/A   Clear
7:35 PM 57.4 °F 42.1 °F 57% 29.99 in 10.0 mi WNW 10.4 mph - N/A   Clear
7:55 PM 56.1 °F 41.4 °F 58% 30.00 in 10.0 mi WNW 10.4 mph - N/A   Clear
8:15 PM 55.9 °F 39.0 °F 53% 30.01 in 10.0 mi WNW 11.5 mph - N/A   Clear
8:35 PM 55.6 °F 37.9 °F 52% 30.02 in 10.0 mi WNW 11.5 mph - N/A   Clear
8:55 PM 55.0 °F 37.8 °F 52% 30.04 in 10.0 mi WNW 9.2 mph - N/A   Clear
9:15 PM 53.6 °F 38.1 °F 56% 30.05 in 10.0 mi WNW 9.2 mph - N/A   Clear
9:35 PM 52.7 °F 37.6 °F 56% 30.06 in 10.0 mi WNW 9.2 mph - N/A   Clear
9:55 PM 52.2 °F 36.7 °F 56% 30.07 in 10.0 mi WNW 10.4 mph - N/A   Clear
10:15 PM 51.8 °F 36.0 °F 55% 30.08 in 10.0 mi WNW 9.2 mph - N/A   Clear
10:35 PM 50.7 °F 36.1 °F 57% 30.08 in 10.0 mi WNW 9.2 mph - N/A   Clear
10:55 PM 50.2 °F 35.6 °F 57% 30.08 in 10.0 mi WNW 10.4 mph - N/A   Clear
11:15 PM 49.5 °F 35.4 °F 58% 30.09 in 10.0 mi WNW 9.2 mph - N/A   Clear
11:35 PM 47.3 °F 36.1 °F 65% 30.09 in 10.0 mi WNW 6.9 mph - N/A   Clear
11:55 PM 47.3 °F 36.5 °F 66% 30.09 in 10.0 mi WNW 8.1 mph - N/A   Clear